Location: Asheville, NC
(35.6000°N, 82.5500°W)
Time: 17:06:16
(UTC-04:00)

UWE-3 - Pass Details

Date: 14 March 2018
Orbit: 585 x 684 km, 97.6° (Epoch: 17 June)

Event Time Altitude Azimuth Distance (km) Brightness Sun altitude
Rises 20:09:37 0° 164° (SSE) 2,952 ? -7.5°
Reaches altitude 10° 20:11:51 10° 162° (SSE) 2,031 ? -7.9°
Maximum altitude 20:16:16 78° 77° (ENE) 648 ? -8.8°
Drops below altitude 10° 20:20:35 10° 351° (N) 1,983 ? -9.7°
Sets 20:22:44 0° 350° (N) 2,877 ? -10.1°
